Flag for Morocco Weather past 2 weeks in Marrakech, Morocco

Now
68 °F

Clear.


Feels Like: 68 °F
Forecast: 67 / 96 °F
Wind: 3 mph from West

Location: Marrakech Airport

Current Time: Aug 22, 2014 at 7:03:54 AM

Latest Report: Aug 22, 2014 at 6:30 AM


Visibility: 10 mi

Pressure: 30.04 "Hg

Humidity: 60%

Dew point: 54 °F

Location of MarrakechLocation

Historic Weather in Marrakech — Graph

°F

Marrakech temperature yesterday

Maximum temperature yesterday: 102 °F (at 4:00 PM)
Minimum temperature yesterday: 75 °F (at 5:00 AM)
Average temperature yesterday: 88 °F

Past Weeks' High & Low Weather Summary

 TemperatureHumidityPressure
High104 °F (Aug 16, 5:00 PM)94% (Aug 9, 8:00 AM)30.07 "Hg (Aug 9, 8:00 AM)
Low66 °F (Aug 9, 7:00 AM)12% (Aug 16, 7:00 PM)29.83 "Hg (Aug 17, 4:30 PM)
Average84 °F49%29.98 "Hg
* Reported Aug 7 6:00 AM — Aug 22 6:00 AM, Marrakech, Weather by CustomWeather, © 2014

Note: Actual official high and low records may vary slightly from our data, if they occured in-between our weather recording intervals... More about our weather records

Advertising

Marrakech weather history for previous 24 hours

 ConditionsComfort  
Time TempWeatherWind HumidityBarometerVisibility
6:00 AM
Aug 22
70 °FClear.3 mph57%30.01 "Hg10 mi
5:30 AM70 °FClear.5 mph57%30.01 "Hg10 mi
5:00 AM72 °FClear.5 mph53%30.01 "Hg10 mi
4:30 AM72 °FMild.5 mph53%30.01 "HgN/A
4:00 AM73 °FClear.5 mph47%30.01 "Hg10 mi
3:30 AM75 °FClear.7 mph44%30.04 "Hg10 mi
3:00 AM77 °FClear.7 mph42%30.04 "Hg10 mi
2:30 AM75 °FClear.5 mph44%30.04 "Hg10 mi
2:00 AM77 °FClear.5 mph39%30.04 "Hg10 mi
1:30 AM79 °FPassing clouds.3 mph37%30.07 "HgN/A
1:00 AM81 °FClear.3 mph34%30.07 "Hg10 mi
12:30 AM82 °FClear.1 mph30%30.07 "Hg10 mi
12:00 AM82 °FClear.3 mph30%30.07 "Hg10 mi
11:30 PM
Aug 21
84 °FClear.7 mph29%30.07 "Hg10 mi
11:00 PM86 °FClear.6 mph27%30.07 "Hg10 mi
10:30 PM86 °FClear.9 mph27%30.07 "Hg10 mi
10:00 PM88 °FClear.10 mph25%30.07 "Hg10 mi
9:30 PM90 °FClear.10 mph24%30.04 "Hg10 mi
9:00 PM90 °FClear.10 mph24%30.04 "Hg10 mi
8:30 PM93 °FPassing clouds.10 mph21%30.01 "HgN/A
8:00 PM95 °FPassing clouds.12 mph23%30.01 "HgN/A
7:30 PM97 °FScattered clouds.12 mph22%29.98 "HgN/A
7:00 PM99 °FScattered clouds.10 mph22%29.98 "HgN/A
6:30 PM99 °FPartly sunny.12 mph22%29.98 "HgN/A
6:00 PM100 °FPartly sunny.13 mph21%29.98 "HgN/A
5:30 PM100 °FPartly sunny.6 mph22%29.98 "HgN/A
5:00 PM102 °FPartly sunny.7 mph23%29.98 "HgN/A
4:30 PM100 °FPartly sunny.8 mph24%29.98 "HgN/A
4:00 PM102 °FPartly sunny.8 mph23%29.98 "HgN/A
3:30 PM100 °FPartly sunny.6 mph25%29.98 "HgN/A
3:00 PM100 °FScattered clouds.6 mph24%30.01 "HgN/A
2:30 PM99 °FScattered clouds.7 mph27%30.01 "HgN/A
2:00 PM99 °FScattered clouds.2 mph27%30.01 "HgN/A
1:30 PM97 °FScattered clouds.2 mph28%30.04 "HgN/A
1:00 PM95 °FScattered clouds.3 mph30%30.04 "HgN/A
12:30 PM93 °FScattered clouds.3 mph32%30.04 "HgN/A
12:00 PM93 °FScattered clouds.5 mph32%30.04 "HgN/A
11:30 AM91 °FScattered clouds.3 mph34%30.07 "HgN/A
11:00 AM90 °FScattered clouds.3 mph38%30.07 "HgN/A
10:30 AM88 °FScattered clouds.3 mph40%30.07 "HgN/A
10:00 AM88 °FScattered clouds.No wind40%30.04 "HgN/A
9:30 AM84 °FScattered clouds.5 mph45%30.04 "HgN/A
9:00 AM82 °FScattered clouds.No wind48%30.04 "HgN/A
8:30 AM81 °FScattered clouds.No wind48%30.04 "HgN/A
8:00 AM77 °FScattered clouds.No wind54%30.04 "HgN/A
7:30 AM75 °FPassing clouds.No wind54%30.01 "HgN/A
7:00 AM77 °FSunny.No wind54%30.01 "Hg10 mi
Weather by CustomWeather, © 2014

See weather overviewHow to use our weather pages